�������l�o���
Date,Time,MP-1(��Sv/h),MP-2(��Sv/h),MP-3(��Sv/h),MP-4(��Sv/h),MP-5(��Sv/h),MP-6(��Sv/h),MP-7(��Sv/h),����,����(m/s),���J
2016/01/13,00:00,0.472,0.274,0.499,0.451,0.425,0.224,0.198,���k��,5.7,��
2016/01/13,00:10,0.472,0.273,0.497,0.451,0.423,0.225,0.198,��,5.4,��
2016/01/13,00:20,0.471,0.274,0.496,0.452,0.423,0.225,0.198,���k��,5.0,��
2016/01/13,00:30,0.471,0.274,0.496,0.450,0.424,0.224,0.198,���k��,4.3,��
2016/01/13,00:40,0.471,0.273,0.498,0.451,0.423,0.225,0.198,���쐼,4.9,��
2016/01/13,00:50,0.471,0.274,0.496,0.449,0.424,0.224,0.199,��,3.6,��
2016/01/13,01:00,0.471,0.273,0.498,0.451,0.424,0.225,0.197,��,2.4,��
2016/01/13,01:10,0.470,0.273,0.496,0.451,0.423,0.226,0.199,���k��,2.3,��
2016/01/13,01:20,0.471,0.273,0.497,0.451,0.423,0.224,0.197,�k��,2.8,��
2016/01/13,01:30,0.470,0.273,0.496,0.450,0.423,0.225,0.198,��,7.4,��
2016/01/13,01:40,0.470,0.274,0.498,0.450,0.425,0.224,0.198,��,9.5,��
2016/01/13,01:50,0.471,0.272,0.497,0.450,0.423,0.224,0.199,��,8.4,��
2016/01/13,02:00,0.471,0.274,0.497,0.451,0.423,0.225,0.197,��,8.1,��
2016/01/13,02:10,0.470,0.273,0.496,0.450,0.423,0.225,0.198,��,7.5,��
2016/01/13,02:20,0.471,0.273,0.498,0.450,0.423,0.225,0.198,��,7.3,��
2016/01/13,02:30,0.469,0.274,0.496,0.450,0.423,0.224,0.198,��,7.0,��
2016/01/13,02:40,0.469,0.274,0.496,0.451,0.424,0.224,0.199,��,6.0,��
2016/01/13,02:50,0.471,0.275,0.496,0.451,0.423,0.224,0.199,��,5.6,��
2016/01/13,03:00,0.471,0.273,0.495,0.450,0.423,0.222,0.198,���쐼,5.2,��
2016/01/13,03:10,0.470,0.273,0.496,0.450,0.423,0.225,0.198,���쐼,6.7,��
2016/01/13,03:20,0.471,0.273,0.495,0.450,0.423,0.224,0.198,���쐼,8.1,��
2016/01/13,03:30,0.471,0.274,0.496,0.450,0.424,0.225,0.199,���쐼,6.8,��
2016/01/13,03:40,0.470,0.274,0.496,0.451,0.423,0.224,0.198,��,5.4,��
2016/01/13,03:50,0.471,0.274,0.495,0.449,0.424,0.223,0.197,��,5.3,��
2016/01/13,04:00,0.471,0.272,0.497,0.451,0.422,0.224,0.199,��,5.4,��
2016/01/13,04:10,0.469,0.272,0.496,0.449,0.423,0.225,0.198,��,4.7,��
2016/01/13,04:20,0.471,0.273,0.496,0.449,0.423,0.224,0.198,��,5.1,��
2016/01/13,04:30,0.472,0.274,0.496,0.452,0.422,0.225,0.198,��,4.8,��
2016/01/13,04:40,0.471,0.273,0.496,0.450,0.425,0.225,0.198,��,4.6,��
2016/01/13,04:50,0.470,0.273,0.496,0.448,0.424,0.224,0.198,��,5.1,��
2016/01/13,05:00,0.469,0.273,0.496,0.449,0.424,0.225,0.199,���k��,5.0,��
2016/01/13,05:10,0.471,0.271,0.496,0.449,0.423,0.224,0.198,��,5.6,��
2016/01/13,05:20,0.471,0.272,0.496,0.451,0.422,0.223,0.198,���k��,4.7,��
2016/01/13,05:30,0.472,0.274,0.496,0.450,0.424,0.224,0.199,���k��,4.0,��
2016/01/13,05:40,0.471,0.272,0.498,0.450,0.424,0.224,0.198,��,4.8,��
2016/01/13,05:50,0.469,0.274,0.496,0.450,0.422,0.225,0.198,��,5.7,��
2016/01/13,06:00,0.471,0.273,0.495,0.449,0.423,0.225,0.197,���쐼,6.2,��
2016/01/13,06:10,0.471,0.273,0.496,0.451,0.423,0.225,0.197,���쐼,5.6,��
2016/01/13,06:20,0.470,0.273,0.496,0.451,0.424,0.225,0.198,��,4.7,��
2016/01/13,06:30,0.470,0.274,0.496,0.450,0.424,0.225,0.198,��,5.3,��
2016/01/13,06:40,0.468,0.273,0.495,0.449,0.424,0.224,0.198,��,4.8,��
2016/01/13,06:50,0.470,0.274,0.495,0.450,0.424,0.224,0.198,��,3.9,��
2016/01/13,07:00,0.469,0.272,0.495,0.451,0.425,0.224,0.198,���쐼,4.2,��
2016/01/13,07:10,0.470,0.273,0.498,0.451,0.421,0.225,0.198,��,4.4,��
2016/01/13,07:20,0.470,0.272,0.496,0.449,0.423,0.224,0.198,��,5.2,��
2016/01/13,07:30,0.468,0.273,0.495,0.449,0.424,0.224,0.198,��,5.8,��
2016/01/13,07:40,0.471,0.272,0.494,0.449,0.423,0.224,0.197,��,6.8,��
2016/01/13,07:50,0.469,0.273,0.497,0.449,0.424,0.225,0.197,��,6.7,��
2016/01/13,08:00,0.470,0.273,0.496,0.448,0.423,0.224,0.198,��,6.8,��
2016/01/13,08:10,0.470,0.274,0.496,0.450,0.422,0.224,0.198,��,6.3,��
2016/01/13,08:20,0.470,0.272,0.493,0.450,0.424,0.224,0.197,��,5.6,��
2016/01/13,08:30,0.468,0.273,0.496,0.451,0.422,0.224,0.199,�k��,4.3,��
2016/01/13,08:40,0.468,0.273,0.496,0.448,0.421,0.224,0.196,�k��,5.2,��
2016/01/13,08:50,0.470,0.272,0.495,0.447,0.423,0.223,0.196,���k��,3.6,��
2016/01/13,09:00,0.471,0.272,0.493,0.450,0.424,0.224,0.198,���k��,2.0,��
2016/01/13,09:10,0.470,0.274,0.495,0.447,0.423,0.224,0.197,��,0.8,��
2016/01/13,09:20,0.471,0.273,0.498,0.449,0.423,0.223,0.198,���k��,3.0,��
2016/01/13,09:30,0.471,0.273,0.495,0.447,0.423,0.224,0.198,�k�k��,4.0,��
2016/01/13,09:40,0.470,0.271,0.495,0.446,0.423,0.225,0.197,���k��,3.5,��
2016/01/13,09:50,0.470,0.271,0.495,0.449,0.422,0.225,0.198,���k��,2.9,��
2016/01/13,10:00,0.471,0.272,0.495,0.448,0.421,0.225,0.197,��,3.9,��
2016/01/13,10:10,0.468,0.272,0.494,0.449,0.424,0.225,0.197,��,2.4,��
2016/01/13,10:20,0.470,0.273,0.494,0.449,0.421,0.225,0.198,���쐼,3.8,��
2016/01/13,10:30,0.469,0.271,0.498,0.449,0.424,0.225,0.198,���쐼,2.5,��
2016/01/13,10:40,0.467,0.272,0.495,0.451,0.422,0.226,0.198,�쐼,4.2,��
2016/01/13,10:50,0.470,0.271,0.494,0.449,0.423,0.224,0.198,��,2.1,��
2016/01/13,11:00,0.468,0.273,0.499,0.453,0.423,0.225,0.199,��쓌,5.5,��
2016/01/13,11:10,0.471,0.273,0.493,0.450,0.425,0.225,0.198,��쓌,5.6,��
2016/01/13,11:20,0.470,0.273,0.494,0.451,0.425,0.224,0.199,��쓌,5.8,��
2016/01/13,11:30,0.472,0.274,0.496,0.452,0.422,0.224,0.200,��쓌,4.7,��
2016/01/13,11:40,0.469,0.272,0.493,0.450,0.427,0.223,0.199,��쓌,5.4,��
2016/01/13,11:50,0.472,0.273,0.496,0.452,0.423,0.223,0.198,��,7.8,��
2016/01/13,12:00,0.473,0.272,0.493,0.450,0.427,0.224,0.199,��쓌,7.0,��
2016/01/13,12:10,0.471,0.273,0.493,0.451,0.423,0.226,0.198,��쓌,8.2,��
2016/01/13,12:20,0.470,0.273,0.493,0.451,0.428,0.225,0.198,��쓌,8.4,��
2016/01/13,12:30,0.471,0.272,0.495,0.450,0.425,0.225,0.199,��쓌,8.4,��
2016/01/13,12:40,0.471,0.274,0.496,0.450,0.425,0.225,0.197,��쓌,8.4,��
2016/01/13,12:50,0.471,0.273,0.495,0.449,0.426,0.224,0.199,��쓌,8.7,��
2016/01/13,13:00,0.474,0.274,0.498,0.453,0.424,0.224,0.199,��,8.7,��
2016/01/13,13:10,0.471,0.274,0.492,0.450,0.428,0.225,0.198,��,9.6,��
2016/01/13,13:20,0.474,0.273,0.498,0.448,0.425,0.225,0.199,��,9.3,��
2016/01/13,13:30,0.471,0.274,0.494,0.453,0.426,0.224,0.197,��쓌,8.7,��
2016/01/13,13:40,0.472,0.272,0.497,0.450,0.427,0.224,0.198,��,9.2,��
2016/01/13,13:50,0.473,0.275,0.496,0.454,0.423,0.225,0.199,��쓌,8.4,��
2016/01/13,14:00,0.470,0.274,0.495,0.451,0.425,0.224,0.198,��,8.1,��
2016/01/13,14:10,0.474,0.272,0.497,0.450,0.425,0.226,0.198,��쓌,8.1,��
2016/01/13,14:20,0.472,0.273,0.493,0.451,0.424,0.224,0.198,��,8.4,��
2016/01/13,14:30,0.471,0.274,0.497,0.450,0.426,0.225,0.198,��쓌,7.8,��
2016/01/13,14:40,0.475,0.274,0.497,0.453,0.425,0.225,0.197,��,7.5,��
2016/01/13,14:50,0.473,0.273,0.495,0.451,0.424,0.224,0.199,��쓌,7.5,��
2016/01/13,15:00,0.473,0.273,0.497,0.452,0.424,0.224,0.199,��,8.1,��
2016/01/13,15:10,0.474,0.274,0.494,0.453,0.426,0.224,0.199,��,7.4,��
2016/01/13,15:20,0.474,0.274,0.494,0.452,0.425,0.225,0.199,��,7.8,��
2016/01/13,15:30,0.472,0.274,0.498,0.450,0.425,0.225,0.199,��,7.8,��
2016/01/13,15:40,0.476,0.274,0.495,0.453,0.424,0.224,0.199,��,7.4,��
2016/01/13,15:50,0.471,0.274,0.495,0.452,0.423,0.225,0.199,��,5.6,��
2016/01/13,16:00,0.470,0.273,0.497,0.452,0.425,0.225,0.200,��,7.1,��
2016/01/13,16:10,0.474,0.274,0.494,0.453,0.427,0.224,0.198,��,7.8,��
2016/01/13,16:20,0.473,0.274,0.496,0.452,0.424,0.225,0.199,��,8.8,��
2016/01/13,16:30,0.473,0.274,0.499,0.451,0.424,0.225,0.199,��,8.1,��
2016/01/13,16:40,0.474,0.274,0.495,0.451,0.425,0.225,0.199,��,8.2,��
2016/01/13,16:50,0.472,0.274,0.496,0.452,0.425,0.225,0.198,��,9.0,��
2016/01/13,17:00,0.471,0.274,0.499,0.451,0.422,0.225,0.198,��,9.6,��
2016/01/13,17:10,0.473,0.274,0.495,0.451,0.425,0.224,0.198,��,9.3,��
2016/01/13,17:20,0.472,0.274,0.496,0.453,0.425,0.225,0.198,��,9.5,��
2016/01/13,17:30,0.472,0.273,0.498,0.451,0.423,0.225,0.199,��쐼,9.3,��
2016/01/13,17:40,0.471,0.274,0.496,0.450,0.423,0.225,0.198,��쐼,8.7,��
2016/01/13,17:50,0.472,0.274,0.494,0.452,0.425,0.224,0.199,��쐼,10.0,��
2016/01/13,18:00,0.471,0.274,0.496,0.454,0.423,0.225,0.199,��쐼,8.8,��
2016/01/13,18:10,0.472,0.275,0.495,0.450,0.424,0.225,0.198,��쐼,10.0,��
2016/01/13,18:20,0.473,0.274,0.497,0.453,0.423,0.224,0.198,��쐼,10.0,��
2016/01/13,18:30,0.473,0.273,0.497,0.451,0.425,0.224,0.198,��쐼,8.4,��
2016/01/13,18:40,0.472,0.273,0.497,0.452,0.423,0.225,0.199,��쐼,8.4,��
2016/01/13,18:50,0.470,0.273,0.496,0.451,0.424,0.225,0.199,��쐼,8.1,��
2016/01/13,19:00,0.471,0.275,0.496,0.452,0.424,0.226,0.198,��쐼,8.2,��
2016/01/13,19:10,0.471,0.274,0.498,0.452,0.426,0.225,0.198,��쐼,7.3,��
2016/01/13,19:20,0.472,0.275,0.497,0.452,0.424,0.224,0.197,��쐼,8.2,��
2016/01/13,19:30,0.471,0.273,0.495,0.449,0.423,0.224,0.198,��쐼,8.2,��
2016/01/13,19:40,0.471,0.273,0.498,0.452,0.425,0.225,0.199,��쐼,7.4,��
2016/01/13,19:50,0.471,0.274,0.497,0.452,0.425,0.225,0.198,��쐼,7.7,��
2016/01/13,20:00,0.471,0.275,0.495,0.450,0.423,0.225,0.199,�쐼,7.6,��
2016/01/13,20:10,0.470,0.274,0.496,0.453,0.423,0.226,0.199,�쐼,5.7,��
2016/01/13,20:20,0.471,0.274,0.497,0.451,0.427,0.224,0.198,�쐼,6.2,��
2016/01/13,20:30,0.471,0.275,0.495,0.452,0.425,0.225,0.198,�쐼,6.4,��
2016/01/13,20:40,0.472,0.274,0.494,0.450,0.423,0.225,0.199,�쐼,6.4,��
2016/01/13,20:50,0.470,0.275,0.497,0.451,0.423,0.226,0.198,�쐼,5.4,��
2016/01/13,21:00,0.471,0.274,0.495,0.453,0.426,0.225,0.198,���쐼,4.2,��
2016/01/13,21:10,0.473,0.275,0.495,0.451,0.424,0.224,0.199,���쐼,3.8,��
2016/01/13,21:20,0.474,0.274,0.497,0.451,0.422,0.225,0.199,���쐼,4.0,��
2016/01/13,21:30,0.472,0.273,0.498,0.452,0.424,0.225,0.199,���쐼,4.5,��
2016/01/13,21:40,0.471,0.274,0.495,0.452,0.425,0.226,0.198,���쐼,4.4,��
2016/01/13,21:50,0.472,0.275,0.493,0.450,0.423,0.226,0.198,���쐼,5.0,��
2016/01/13,22:00,0.473,0.274,0.497,0.452,0.424,0.225,0.198,���쐼,6.3,��
2016/01/13,22:10,0.472,0.274,0.496,0.453,0.424,0.226,0.200,���쐼,7.4,��
2016/01/13,22:20,0.472,0.274,0.495,0.453,0.425,0.226,0.198,���쐼,6.0,��
2016/01/13,22:30,0.473,0.274,0.496,0.451,0.423,0.225,0.199,���쐼,7.3,��
2016/01/13,22:40,0.471,0.274,0.497,0.450,0.422,0.225,0.199,�쐼,6.8,��
2016/01/13,22:50,0.471,0.274,0.495,0.453,0.425,0.226,0.199,�쐼,5.7,��
2016/01/13,23:00,0.471,0.275,0.495,0.452,0.425,0.226,0.199,�쐼,4.9,��
2016/01/13,23:10,0.471,0.274,0.497,0.451,0.424,0.226,0.199,���쐼,3.3,��
2016/01/13,23:20,0.471,0.274,0.500,0.451,0.423,0.225,0.200,��,1.7,��
2016/01/13,23:30,0.472,0.275,0.497,0.450,0.425,0.225,0.198,��,3.3,��
2016/01/13,23:40,0.471,0.274,0.497,0.452,0.423,0.224,0.198,��,2.1,��
2016/01/13,23:50,0.472,0.275,0.498,0.451,0.425,0.226,0.199,���k��,3.7,��
